Regional Weather Roundup
Issued by NWS

Home | Current Version | Previous Version | Graphics & Text | Print | Product List | Glossary On
Versions: 1 2 3 4 5 6 7 8 9 10 11 12 13 14 15 16 17 18 19 20 21 22 23 24 25 26 27 28 29 30 31 32 33 34 35 36 37 38 39 40 41 42 43 44 45 46 47 48 49 50
000
ASUS43 KTOP 230959
RWRKS

WEATHER ROUNDUP FOR KANSAS
NATIONAL WEATHER SERVICE GOODLAND KS
500 AM CDT MON OCT 23 2017

NOTE:  "FAIR" INDICATES FEW OR NO CLOUDS BELOW 12,000 FEET WITH NO
SIGNIFICANT WEATHER AND/OR OBSTRUCTIONS TO VISIBILITY.

KSZ001>006-013>018-027>032-041>047-231100-
NORTHWEST KANSAS

CITY           SKY/WX    TMP DP  RH WIND       PRES   REMARKS
GOODLAND       CLEAR     53  30  41 NW16G23   30.09R
HAYS           CLOUDY    43  31  62 W8        29.97F
HILL CITY      CLEAR     51  33  50 W9        29.99R
RUSSELL        CLOUDY    44  34  67 SW12      29.94F
$$

KSZ061>065-074>080-084>089-231100-
SOUTHWEST KANSAS

CITY           SKY/WX    TMP DP  RH WIND       PRES   REMARKS
DODGE CITY     CLEAR     50  32  50 W12       30.01F
ELKHART          N/A     52  32  46 NW6         N/A
GARDEN CITY    CLEAR     42  32  67 NW8       30.03S
GREAT BEND     CLEAR     42  33  70 SW7       29.98F
LIBERAL        CLOUDY    41  34  76 NW9       30.04F
$$

KSZ066>073-081>083-090>101-231100-
SOUTHEAST KANSAS

CITY           SKY/WX    TMP DP  RH WIND       PRES   REMARKS
CHANUTE        CLEAR     44  38  79 SE6       30.01F
COFFEYVILLE    CLEAR     44  42  93 S3        30.03S
HUTCHINSON     CLEAR     45  39  79 SW3       29.96F
MEDICINE LODGE   N/A     47  38  71 S6        29.99F
NEWTON         CLEAR     47  40  76 S12       29.96F
PARSONS        CLEAR     41  39  93 CALM      30.03F
WICHITA INTL   CLEAR     48  43  82 S9        29.97F
WICHITA JABRA  CLEAR     50  41  71 S13       29.97F
WICHITA MCCONL CLEAR     49  40  72 SW10      29.98F
WINFIELD       CLEAR     47  41  80 S5        30.02F
$$

KSZ007>012-019>026-033>040-048>060-102>105-231100-
NORTHEAST KANSAS

CITY           SKY/WX    TMP DP  RH WIND       PRES   REMARKS
CONCORDIA      CLEAR     50  31  48 SW9       29.90F
EMPORIA        CLEAR     49  38  65 S12       29.95F
LAWRENCE       CLEAR     43  40  89 E6        29.97F
MANHATTAN      CLEAR     49  41  74 SW7       29.92F
OLATHE IND     CLEAR     42  39  89 S6        29.98F
OLATHE EXE     CLEAR     43  38  82 S7        29.98F
SALINA         CLEAR     49  40  71 S5        29.93F
TOPEKA BILLARD CLEAR     45  39  79 SE5       29.94F
TOPEKA FORBES  CLEAR     47  39  74 S8        29.94F
$$




USA.gov is the U.S. government's official web portal to all federal, state and local government web resources and services.